Regional Weather Roundup
Issued by NWS

Home | Current Version | Previous Version | Text Only | Print | Product List | Glossary On
Versions: 1 2 3 4 5 6 7 8 9 10 11 12 13 14 15 16 17 18 19 20 21 22 23 24 25 26 27 28 29 30 31 32 33 34 35 36 37 38 39 40 41 42 43 44 45 46 47 48 49 50
000
ASUS43 KDMX 190001
RWRIA

WEATHER ROUNDUP FOR IOWA
NATIONAL WEATHER SERVICE DES MOINES IA
600 PM CST WED JAN 18 2017

NOTE: "FAIR" INDICATES FEW OR NO CLOUDS BELOW 12,000 FEET WITH NO
SIGNIFICANT WEATHER AND/OR OBSTRUCTIONS TO VISIBILITY.

* - THESE STATIONS ARE NOT NWS STATIONS...THUS NOT UNDER NWS
QUALITY CONTROL.  THEY ALSO DO NOT REPORT WEATHER SUCH
AS PRECIPITATION OR FOG.

IAZ001>003-012>014-020>022-031>034-043>046-190100-
   NORTHWEST IOWA

CITY           SKY/WX    TMP DP  RH WIND       PRES   REMARKS
CARROLL *      CLEAR     37  37 100 S9        29.91S WCI  31
CHEROKEE *     CLEAR     38  37  97 S7        29.87F WCI  32
DENISON *      CLEAR     41  37  87 S13       29.87S
LE MARS *      CLEAR     41  37  87 SE9G15    29.85F
ORANGE CITY *  CLEAR     39  37  93 S7        29.84S WCI  34
SHELDON *      CLEAR     39  39 100 S13       29.83S WCI  32
SIOUX CITY     CLEAR     42  36  79 E5        29.86S
6HR MIN TEMP:  42; 6HR MAX TEMP:  51;

SPENCER        CLEAR     38  36  92 S10       29.87S WCI  31
6HR MIN TEMP:  37; 6HR MAX TEMP:  43;

STORM LAKE *   CLEAR     37  36  93 S10       29.88F WCI  30
$$

IAZ055>058-069>071-079>083-090>094-190100-
   SOUTHWEST IOWA

CITY           SKY/WX    TMP DP  RH WIND       PRES   REMARKS
ATLANTIC *     CLEAR     39  37  93 S6        29.93R WCI  35
AUDUBON *      CLEAR     39  36  87 S3        29.93S
CLARINDA *     CLEAR     41  39  93 S6        29.97S
COUNCIL BLFS * CLEAR     43  37  81 S10       29.90S
CRESTON *      CLEAR     36  36 100 S9        29.97S WCI  29
HARLAN  *      CLEAR     39  39 100 S7        29.95S WCI  34
LAMONI         CLEAR     36  34  92 SE5       29.99R WCI  32
6HR MIN TEMP:  32; 6HR MAX TEMP:  39;

RED OAK *      CLEAR     41  37  87 S7        29.94S
SHENANDOAH *   CLEAR     41  37  87 S10       29.95S
$$

IAZ047>049-059>061-072>074-084-190100-
   CENTRAL IOWA

CITY           SKY/WX    TMP DP  RH WIND       PRES   REMARKS
AMES           CLEAR     37  35  92 SE5       29.96S WCI  33
6HR MIN TEMP:  36; 6HR MAX TEMP:  47;

ANKENY *       CLEAR     37  34  87 S7        29.98S WCI  32
BOONE *        CLEAR     37  34  87 S8        29.94S WCI  31
CHARITON *     PTCLDY    34  34 100 S14       29.99R WCI  24
DES MOINES     CLEAR     39  34  82 S10       29.97S WCI  32
6HR MIN TEMP:  38; 6HR MAX TEMP:  49;

GRINNELL*      CLEAR     37  34  89 S9        29.99S WCI  30
KNOXVILLE *    CLEAR     36  34  93 S9        29.98S WCI  29
MARSHALLTOWN   CLEAR     39  36  89 S9        29.97S WCI  33
6HR MIN TEMP:  33; 6HR MAX TEMP:  43;

NEWTON *       CLEAR     36  34  93 S7        29.98S WCI  30
PELLA *        CLEAR     37  33  87 S7        30.01S WCI  31
PERRY *          N/A     38  37  94 S10       29.94S WCI  31
$$

IAZ004>006-015-016-023>025-035-036-190100-
   NORTH CENTRAL IOWA

CITY           SKY/WX    TMP DP  RH WIND       PRES   REMARKS
ALGONA *       CLEAR     39  37  93 S15       29.90S WCI  31
CLARION *      CLEAR     37  37 100 S14       29.93S WCI  29
ESTHERVILLE    CLEAR     35  35 100 S9        29.86S WCI  28
6HR MIN TEMP:  35; 6HR MAX TEMP:  41;

FORT DODGE *   CLEAR     41  34  75 S7        29.94S
MASON CITY     CLEAR     34  32  92 S8        29.94R WCI  27
6HR MIN TEMP:  32; 6HR MAX TEMP:  35;

FOREST CITY *    N/A     34  34 100 S9        29.92S WCI  26
WEBSTER CITY * CLEAR     37  37 100 S10       29.92S WCI  30
IOWA FALLS *     N/A     38  35  90 S8        29.96S WCI  32
$$

IAZ007>011-017>019-026>030-037>042-050>054-066-190100-
   NORTHEAST IOWA

CITY           SKY/WX    TMP DP  RH WIND       PRES   REMARKS
CEDAR RAPIDS   CLEAR     34  32  92 SE5       30.01S WCI  30
6HR MIN TEMP:  32; 6HR MAX TEMP:  38;

CHARLES CITY * CLOUDY    34  34 100 S12       29.96S WCI  25
CLINTON *      CLOUDY    31  30  96 SE5       30.07R WCI  26
DECORAH *      CLOUDY    32  32 100 VRB6G14   29.97S FOG     WCI  26
DUBUQUE        CLOUDY    33  32  96 SW13      30.02S FOG     WCI  24
6HR MIN TEMP:  31; 6HR MAX TEMP:  34;

MONTICELLO *   MOCLDY    36  34  93 SE3       30.04R
OELWEIN *      CLOUDY    34  34 100 S12       30.00S FOG     WCI  25
WATERLOO       CLEAR     34  32  92 SE8       29.99S FOG     WCI  27
6HR MIN TEMP:  32; 6HR MAX TEMP:  37;

$$

IAZ064-065-067-068-078-190100-
   EAST CENTRAL IOWA

CITY           SKY/WX    TMP DP  RH WIND       PRES   REMARKS
DAVENPORT      CLEAR     35  31  85 S5        30.06R WCI  31
6HR MIN TEMP:  35; 6HR MAX TEMP:  39;

IOWA CITY      CLEAR     37  33  85 SE5       30.05R WCI  33
6HR MIN TEMP:  35; 6HR MAX TEMP:  42;

MUSCATINE *    CLEAR     39  34  81 S5        30.06S
QUAD CITIES    CLEAR     38  33  82 CALM      30.05R
6HR MIN TEMP:  35; 6HR MAX TEMP:  42;

$$

IAZ062-063-075>077-085>089-095>099-190100-
   SOUTHEAST IOWA

CITY           SKY/WX    TMP DP  RH WIND       PRES   REMARKS
BURLINGTON     CLEAR     37  35  92 S7        30.05R WCI  32
6HR MIN TEMP:  37; 6HR MAX TEMP:  42;

FAIRFIELD *    CLEAR     36  34  93 S8        30.04R WCI  29
FORT MADISON * CLEAR     37  36  93 S8        30.07R WCI  31
KEOKUK *       CLEAR     37  36  93 MISG      30.06R
OSKALOOSA *      N/A     35  32  88 S8        30.02R WCI  29
OTTUMWA        CLEAR     35  31  85 S7        30.02R WCI  29
6HR MIN TEMP:  35; 6HR MAX TEMP:  45;

WASHINGTON *   CLEAR     36  34  93 S7        30.04S WCI  30
$$

ABBREVIATIONS USED IN REMARKS
   TC - TEMPERATURES IN CELSIUS
  WCI - WIND CHILL INDEX
   HX - HEAT INDEX
  VSB - VISIBILITY
$$





USA.gov is the U.S. government's official web portal to all federal, state and local government web resources and services.